Regional Weather Roundup
Issued by NWS Newport/Morehead, NC

Current Version | Previous Version | Graphics & Text | Print | Product List | Glossary On
Versions: 1 2 3 4 5 6 7 8 9 10 11 12 13 14 15 16 17 18 19 20 21 22 23 24 25 26 27 28 29 30 31 32 33 34 35 36 37 38 39 40 41 42 43 44 45 46 47 48 49 50
037 ASUS42 KMHX 170925 RWRMHX WEATHER ROUNDUP FOR EASTERN NORTH CAROLINA NATIONAL WEATHER SERVICE NEWPORT/MOREHEAD CITY NC 400 AM EST SAT FEB 17 2018 NOTE: "FAIR" INDICATES FEW OR NO CLOUDS BELOW 12,000 FEET WITH NO SIGNIFICANT WEATHER AND/OR OBSTRUCTIONS TO VISIBILITY NCZ015>017-031-032-045>047-102-103-171000- NORTH COAST CITY SKY/WX TMP DP RH WIND PRES REMARKS EDENTON CLOUDY 46 38 72 NE10G17 30.27R ELIZABETH CITY MOCLDY 44 36 73 N14 30.26R KITTY HAWK CLOUDY 44 41 88 N9G20 30.24R MANTEO CLOUDY 45 38 77 NE21 30.26R $$ NCZ045>047-081-094-103-104-171000- CENTRAL COAST CITY SKY/WX TMP DP RH WIND PRES REMARKS FRISCO CLOUDY 51 44 77 N12G21 30.22S $$ NCZ095-097-098-100-101-171000- SOUTHERN COAST CITY SKY/WX TMP DP RH WIND PRES REMARKS BEAUFORT CLOUDY 51 43 74 NE16G25 30.21S CEDAR ISLAND NOT AVBL JACKSONVILLE CLOUDY 53 48 83 NE15G22 30.21R PINEY ISLAND NOT AVBL WILMINGTON CLOUDY 55 50 83 E13G29 30.19R $$ NCZ011>013-027>030-043-044-078>080-089-090>093-098-171000- COASTAL PLAIN CITY SKY/WX TMP DP RH WIND PRES REMARKS AHOSKIE FAIR 42 35 76 N6 30.30R CLINTON MOCLDY 58 45 62 NE7 30.20R ELIZABETHTOWN NOT AVBL GOLDSBORO CLOUDY 52 46 82 NE15G22 30.21R GREENVILLE CLOUDY 50 41 71 NE9 30.26R HAVELOCK CLOUDY 52 50 93 NE13G24 30.23S KENANSVILLE CLOUDY 54 48 82 E8 30.22R KINSTON CLOUDY 51 48 89 NE9 30.24R NEW BERN CLOUDY 49 47 93 NE13 30.25R RICHLANDS CLOUDY 54 50 87 NE13 30.21R ROCKY MOUNT CLOUDY 50 42 74 NE9 30.24R WASHINGTON CLOUDY 48 42 79 NE7 30.26R WHITEVILLE NOT AVBL $$ AMZ130-135-150-152-154-156-158-170-250-252-270-ANZ085-086-088-633-658-670-171000- MARINE OBSERVATIONS STATION/POSITION TIME TEMP WIND PRES WAVE SWELL AIR SEA DIR/SP/G HT/PER HT/PER (UTC) (F) (DEG/KT/KT) (MB) (FT/S) (FT/S) CHESAPEAKE LIGHT NOT AVBL 64 E VA BEACH 0850 48 50 30/ 19/ 21 1024.0 6/ 5 2/11 DUCK 0900 44 45 10/ 19/ 23 1023.8 2 E DUCK 0900 45 N/A 5/ 5 2/11 OREGON INLET 0848 45 56 360/ 13/ 20 1023.8 13E OREGON INLT 0848 47 N/A 3/11 2/11 HATTERAS CG 0900 50 60 20/ 21/ 26 1022.9 DIAMOND BUOY 0910 55 69 10/ 19/ 25 1023.1 CAPE LOOKOUT 0900 30/ 22/ 26 1023.1 BEAUFORT LAB 0900 51 55 30/ 10/ 17 1023.3 30 SE NEW RVR IN 0808 57 68 70/ 21/ 29 1022.0 30 SE NEW RVR IN 0900 68 N/A 7/ 5 2/11 27 SE WRIGHTSVLE 0808 60 64 80/ 23/ 35 1021.8 5 SE WRIGHTSVLE 0808 56 52 20/ 8/ 10 1020.9 225 S CAPE HAT 0850 72 72 260/ 14/ 16 1019.6 7/ 8 7/ 8 41 SE CHARLESTON 0910 64 68 10/ 8/ 12 1019.9 $$

USA.gov is the U.S. government's official web portal to all federal, state and local government web resources and services.